THOR ABLESTAR DEB, 715

Orbit data source: Space-Track

THOR ABLESTAR DEB, 715 is space debris in LEO originally from a launch on Thu, 05 Dec 1963 UTC launched from the Air Force Western Test Range (AFWTR). Debris objects in space refer to the collection of defunct objects orbiting the Earth. Examples of debris include non-operational satellites, rocket bodies, and fragments generated from explosions, collisions, or faulty payload assembly.

Loading next visibility...
Identifier
715, 1963-049E
Orbit
LEO
Last TLE update
21 hours ago
Origin
Manufacturer
Unknown
Mission
Spacecraft
Bus & Motor
Unknown
Mass
Unknown
Launch date (UTC)
1963-12-05 (62 years ago)
Launch vehicle
Unknown
Launch site
Air Force Western Test Range (AFWTR)
Object type
Payload
Rocket body
Debris
Shape & HBR
Unknown
Radar Cross Section
Small (<0.1 m²)

Expand to show TLE details & history

TLE from 21 hours ago
0 THOR ABLESTAR DEB
1 00715U 63049E   25186.14737785  .00000567  00000-0  58199-3 0  9992
2 00715  89.9102  80.9042 0031101 122.9395  42.9826 13.74986663 55682
Epoch: 2025-07-05T03:32Z
TLE epoch observation values (Epoch: 2025-07-05T03:32:13.446Z)
Latitude
13.80082°
Longitude
-75.56336°
Altitude
967.262 km
Speed
7.377 km/s
True Right ascension
17h 23m 31s
True Declination
13° 43' 25"
Sunlit
Object was in full shadow at epoch
Visualization orbit readout
Latitude
-32.78676°
Longitude
-75.49221°
Altitude
994.943 km
Speed
7.353 km/s
Apparent Right ascension
20h 24m 21s
Apparent Declination
-50° 54' 27"
Sunlit
Object is in full shadow
Visualization observer readout
Local Sidereal Time
12:39:45
Azimuth
126.376° SE
Elevation
-45.331°
Doppler factor
1
Orbital elements
Apogee altitude
1,001.616 km
Perigee altitude
955.855 km
Semi-major axis
7,356.873 km
Eccentricity
0.00311
Inclination
89.9102°
RAAN
80.9042°
Arg. of periapsis
122.9395°
True anomaly
Unknown
Mean anomaly
42.9826°
Eccentric anomaly
Unknown
Mean motion
3.43956 °/min
Orbital period
104.66 mins
BSTAR
0.00058199
Loading maneuver chart data...
Loading SW <> Apogee altitude chart data...
Loading historical data...
Loading historical data...
Loading historical data...
Loading historical data...
Loading historical data...
Loading historical data...
Loading historical data...

THOR ABLESTAR DEB Visibility forecast

Observer location: undefined°, undefined°

Span
Click to sort rows by Start time (UTC) header in descending order
Start Az.
Max El. time (UTC)
Max El. Az.
Max El.
End time (UTC)
End Az.
6 mins2025-07-06 03:48:11.611Z45.578° ENE2025-07-06 03:51:11.611Z76.068° E14.382°2025-07-06 03:54:11.611Z107.149° ESE
10 mins2025-07-06 05:32:11.611Z356.423° N2025-07-06 05:36:11.611Z302.877° NW43.689°2025-07-06 05:42:11.611Z191.22° SSW
11 mins2025-07-06 17:16:11.611Z173.463° S2025-07-06 17:21:11.611Z56.99° ENE44.856°2025-07-06 17:27:11.611Z359.223° N
|